Weather History for KFIG - January, 2014

Change the Weather History Date:

Tuesday, January 7, 2014

  Actual Average (KDUJ) Record (KDUJ)
Temperature  
Mean Temperature -6 °F 24 °F  
Max Temperature 0 °F 31 °F 61 °F (2008)
Min Temperature -11 °F 17 °F -13 °F (2014)
Degree Days  
Heating Degree Days 70 41  
Month to date heating degree days 287  
Since 1 July heating degree days 2949  
Cooling Degree Days 0 0  
Month to date cooling degree days 0  
Year to date cooling degree days 0  
Moisture  
Dew Point -15 °F    
Average Humidity 65    
Maximum Humidity 74    
Minimum Humidity 57    
Precipitation  
Precipitation 0.00 in 0.10 in - ()
Month to date precipitation 0.74  
Sea Level Pressure  
Sea Level Pressure 30.19 in    
Wind  
Wind Speed 15 mph (WSW)    
Max Wind Speed 22 mph    
Max Gust Speed 32 mph    
Visibility 7 miles    
Events Snow    
T = Trace of Precipitation, MM = Missing Value Source: NWS Daily Summary

Daily Weather History Graph

Daily Weather History Graph

Search for Another Location

Airport or City:

Trip Planner

Search our weather history database for the weather conditions in past years. The results will help you decide how hot, cold, wet, or windy it might be!

Date:

Astronomy

Jan. 07, 2014 Rise Set
Actual Time 7:38 AM EST 5:01 PM EST
Civil Twilight 7:07 AM EST 5:32 PM EST
Nautical Twilight 6:33 AM EST 6:06 PM EST
Astronomical Twilight 6:00 AM EST 6:39 PM EST
Moon 11:22 AM EST (1/7) No Moon Set
Length of Visible Light 10h 24m
Length of Day
9h 22m
Waxing Crescent, 45% of the Moon is Illuminated
Jan 7
Waxing Crescent
Jan 7
First Quarter
Jan 15
Full
Jan 24
Last Quarter
Jan 30
New

Hourly Weather History & Observations

Time (EST) Temp. Windchill Dew Point Humidity Pressure Visibility Wind Dir Wind Speed Gust Speed Precip Events Conditions
12:03 AM -7.1 °F -30.4 °F -14.1 °F 72% 29.95 in 1.8 mi WSW 18.4 mph 27.6 mph 0.00 in Snow Light Snow
12:09 AM -7.1 °F -27.6 °F -15.0 °F 68% 29.95 in 3.0 mi WSW 13.8 mph 24.2 mph 0.00 in   Overcast
12:54 AM -8.0 °F -31.0 °F -16.1 °F 68% 30.06 in 2.0 mi WSW 17.3 mph 27.6 mph 0.00 in   Overcast
1:09 AM -9.0 °F -31.7 °F -17.0 °F 68% 29.96 in 4.0 mi WSW 16.1 mph 25.3 mph 0.00 in   Haze
1:21 AM -9.0 °F -33.0 °F -16.1 °F 71% 29.97 in 2.5 mi West 18.4 mph 26.5 mph 0.00 in Snow Light Snow
1:31 AM -9.0 °F -33.0 °F -20.0 °F 59% 29.98 in 6.0 mi West 18.4 mph 29.9 mph 0.00 in   Haze
1:54 AM -9.0 °F -30.2 °F -20.0 °F 59% 30.10 in 10.0 mi West 13.8 mph 31.1 mph 0.00 in   Overcast
2:32 AM -9.9 °F -30.5 °F -20.0 °F 61% 30.02 in 9.0 mi West 12.7 mph 25.3 mph N/A   Mostly Cloudy
2:54 AM -9.9 °F -27.5 °F -17.0 °F 71% 30.15 in 2.5 mi West 9.2 mph - 0.00 in Snow Light Snow
3:13 AM -9.9 °F -28.6 °F -18.0 °F 68% 30.04 in 5.0 mi WSW 10.4 mph 21.9 mph 0.00 in   Haze
3:21 AM -9.9 °F -29.6 °F -16.1 °F 74% 30.04 in 1.8 mi WSW 11.5 mph - 0.00 in Snow Light Snow
3:35 AM -9.9 °F -34.8 °F -18.0 °F 68% 30.04 in 3.0 mi WSW 19.6 mph 27.6 mph 0.00 in   Overcast
3:54 AM -11.0 °F -33.5 °F -20.0 °F 64% 30.15 in 8.0 mi West 15.0 mph 25.3 mph 0.00 in   Overcast
4:54 AM -11.0 °F -29.9 °F -22.0 °F 58% 30.17 in 10.0 mi West 10.4 mph 23.0 mph N/A   Mostly Cloudy
5:54 AM -11.9 °F -38.6 °F -20.9 °F 64% 30.19 in 10.0 mi West 21.9 mph 29.9 mph N/A   Overcast
6:54 AM -11.9 °F -33.0 °F -18.9 °F 71% 30.21 in 7.0 mi WSW 12.7 mph - N/A   Overcast
7:54 AM -11.0 °F -36.2 °F -18.9 °F 68% 30.25 in 4.0 mi WSW 19.6 mph 25.3 mph N/A   Haze
8:54 AM -9.9 °F -32.1 °F -18.9 °F 65% 30.27 in 8.0 mi WSW 15.0 mph 27.6 mph N/A   Overcast
9:54 AM -7.1 °F -29.1 °F -18.0 °F 59% 30.29 in 9.0 mi West 16.1 mph 25.3 mph N/A   Overcast
10:54 AM -5.1 °F -25.1 °F -16.1 °F 59% 30.30 in 9.0 mi West 13.8 mph 31.1 mph N/A   Overcast
11:54 AM -5.1 °F -29.0 °F -15.0 °F 62% 30.28 in 5.0 mi WSW 20.7 mph 28.8 mph N/A   Haze
12:54 PM -2.9 °F -23.8 °F -13.0 °F 62% 30.27 in 4.0 mi WSW 16.1 mph 29.9 mph N/A   Haze
1:54 PM -2.0 °F -25.5 °F -14.1 °F 57% 30.27 in 9.0 mi WSW 21.9 mph 32.2 mph N/A   Overcast
2:54 PM -0.9 °F -21.2 °F -11.9 °F 60% 30.28 in 7.0 mi WSW 16.1 mph 25.3 mph N/A   Overcast
3:54 PM -0.0 °F -19.4 °F -11.0 °F 60% 30.31 in 10.0 mi WSW 15.0 mph 20.7 mph N/A   Overcast
4:42 PM -0.9 °F -17.4 °F -11.0 °F 62% 30.18 in 10.0 mi WSW 10.4 mph - N/A   Partly Cloudy
4:54 PM -0.9 °F -21.2 °F -11.0 °F 62% 30.32 in 10.0 mi WSW 16.1 mph 21.9 mph N/A   Scattered Clouds
5:09 PM -0.9 °F -21.2 °F -11.0 °F 62% 30.18 in 10.0 mi WSW 16.1 mph 23.0 mph N/A   Mostly Cloudy
5:18 PM -0.9 °F -19.9 °F -11.0 °F 62% 30.18 in 10.0 mi WSW 13.8 mph 24.2 mph N/A   Scattered Clouds
5:54 PM -0.9 °F -19.9 °F -9.9 °F 66% 30.33 in 10.0 mi WSW 13.8 mph 19.6 mph N/A   Scattered Clouds
6:54 PM -0.9 °F -19.9 °F -9.9 °F 66% 30.35 in 10.0 mi WSW 13.8 mph 20.7 mph N/A   Clear
7:54 PM -0.9 °F -20.6 °F -9.9 °F 66% 30.36 in 10.0 mi WSW 15.0 mph 23.0 mph N/A   Clear
8:54 PM -0.0 °F -18.0 °F -9.0 °F 66% 30.38 in 10.0 mi WSW 12.7 mph - N/A   Clear
9:54 PM -0.0 °F -18.0 °F -8.0 °F 69% 30.39 in 10.0 mi SW 12.7 mph - N/A   Clear
10:54 PM -0.0 °F -15.3 °F -7.1 °F 72% 30.40 in 10.0 mi WSW 9.2 mph - N/A   Clear
11:54 PM -0.0 °F -14.2 °F -7.1 °F 72% 30.41 in 10.0 mi SW 8.1 mph - N/A   Clear